Weather in Peregruznoye

Russia / Volgograd Oblast     47°53′59″N   43°59′20″E
temp.,
°C
wind,
m/s
gust,
m/s
humid.,
%
clouds,
%
prec.,
mm/h
press.,
hPa
HPBL,
m
23 october, sat
sat2300:00+11sw410655 0.0 1018168
03:00+9wsw49845 0.0 1018153
06:00+9sw4693100 0.0 1017116
09:00+13wsw4774100 0.0 1018266
12:00+17wsw5658100 0.0 1018742
15:00+18sw6751100 0.0 10161064
18:00+15sw4662100 0.0 1017106
21:00+14sw41067100 0.0 1017196
24 october, sun
sun2400:00+12w4775100 0.0 1017173
03:00+11nw3782100 0.0 1017259
06:00+11wnw3681100 0.0 1018321
09:00+12nw4572100 0.0 1019499
12:00+14nnw4442100 0.0 1019957
15:00+14nnw4438100 0.0 10181081
18:00+11nw3537100 0.0 1019123
21:00+7nnw6965100 0.1 1020526
25 october, mon
mon2500:00+6nnw5774100 0.2 1020584
03:00+7wnw356793 0.6 1020358
06:00+6wnw486799 0.0 1021280
09:00+6nnw78655 0.0 1023596
12:00+8nnw784724 0.0 10241384
15:00+8nnw88395 0.0 10251476
18:00+5nnw49465 0.0 1028276
21:00+3nnw48557 0.0 1030222
26 october, tue
tue2600:00+1nnw356126 0.0 1031107
03:000n35665 0.0 103295
06:00−1n34685 0.0 103367
09:00+3n34510 0.0 1034353
12:00+6n33340 0.0 1033913
15:00+8nnw23283 0.0 10321004
18:00+4nnw22375 0.0 103210
21:00+2nw11445 0.0 103310
27 october, wed
wed2700:00+1ssw11465 0.0 103210
03:00+1ssw12465 0.0 103210
06:00+1sse22460 0.0 103210
09:00+5sse34380 0.0 1032244
12:00+9sse45280 0.0 1030769
15:00+10sse45290 0.0 1028875
18:00+6sse45430 0.0 102775
21:00+4sse48490 0.0 1026138